USA 283

Last updated on Mon Sep 21 2026 00:03:01 GMT+0000 (Coordinated Universal Time)

1 43339U 18036A 26263.44648785 .00000000 00000+0 00000+0 0 9993 2 43339 0.0150 145.2934 0000030 242.1536 266.7058 1.00269457 26246
UTC large
Height (km)
Speed (km/s)
/
Latitude / Longitude
Inclination (degrees)
Orbital Period (minutes)
Azimuth
Elevation
Range (km)
Doppler Factor

Next 0 passes for location: London (51.5072 / 0.1276)

No passes found over London.
USA 283